Regional Weather Roundup
Issued by NWS Boston, MA

Current Version | Previous Version | Text Only | Print | Product List | Glossary Off
Versions: 1 2 3 4 5 6 7 8 9 10 11 12 13 14 15 16 17 18 19 20 21 22 23 24 25 26 27 28 29 30 31 32 33 34 35 36 37 38 39 40 41 42 43 44 45 46 47 48 49 50
000 ASUS41 KBOX 201910 RWRBOX REGIONAL WEATHER ROUNDUP NATIONAL WEATHER SERVICE BOSTON/NORTON MA 300 PM EDT SAT OCT 20 2018 NOTE: "FAIR" INDICATES FEW OR NO CLOUDS BELOW 12,000 FEET WITH NO SIGNIFICANT WEATHER AND/OR OBSTRUCTIONS TO VISIBILITY. MAZALL-202000- EASTERN MASSACHUSETTS CITY SKY/WX TMP DP RH WIND PRES REMARKS BOSTON PTSUNNY 64 45 49 W13 29.57F BEVERLY PTSUNNY 63 45 51 W12 29.56F LAWRENCE PTSUNNY 65 47 52 SW8 29.57F BEDFORD PTSUNNY 62 46 55 SW8 29.56F BLUE HILL N/A 59 45 59 W14 29.57F NORWOOD PTSUNNY 65 47 52 W10 29.57F MARSHFIELD PTSUNNY 64 50 59 W8G20 29.57F PLYMOUTH PTSUNNY 65 49 56 W15G22 29.58F TAUNTON PTSUNNY 66 48 52 W10G20 29.58F NEW BEDFORD PTSUNNY 63 51 65 W14 29.58F $$ MAZALL-202000- CAPE COD AND THE ISLANDS CITY SKY/WX TMP DP RH WIND PRES REMARKS FALMOUTH FAIR 61 52 72 SW18G24 29.59F HYANNIS FAIR 62 53 72 SW15G25 29.58F CHATHAM PTSUNNY 60 53 77 SW9G22 29.61F NANTUCKET CLOUDY 61 54 77 W18G24 29.62F MARTHAS VNYRD PTSUNNY 60 53 77 W14 29.60F $$ MAZALL-202000- CENTRAL AND WESTERN MASSACHUSETTS CITY SKY/WX TMP DP RH WIND PRES REMARKS WORCESTER CLOUDY 56 45 66 W10 29.58F FITCHBURG FAIR 60 42 51 W10 29.57F ORANGE LGT RAIN 58 42 55 NW6 29.59F SPRINGFIELD LGT RAIN 59 46 63 NW15 29.58F WESTFIELD LGT RAIN 58 47 66 N15 29.59F NORTH ADAMS PTSUNNY 56 44 64 W12G21 29.59F PITTSFIELD LGT RAIN 51 43 74 SW8 29.59F $$ RIZALL-202000- RHODE ISLAND CITY SKY/WX TMP DP RH WIND PRES REMARKS PROVIDENCE PTSUNNY 62 48 60 W15 29.60F NEWPORT FAIR 62 51 67 VRB5 29.59F BLOCK ISLAND FAIR 60 51 72 W17G24 N/A SMITHFIELD CLOUDY 60 47 61 W9 29.60F WESTERLY FAIR 64 51 62 SW12G18 29.61F $$ CTZALL-202000- CONNECTICUT CITY SKY/WX TMP DP RH WIND PRES REMARKS BRADLEY INTL PTSUNNY 62 44 51 W13 29.59F HARTFORD PTSUNNY 62 45 53 W8 29.60F BRIDGEPORT PTSUNNY 63 49 60 SW13 29.62F DANBURY PTSUNNY 61 46 57 SW10 29.62F GROTON FAIR 63 51 65 SW14 29.60F NEW HAVEN PTSUNNY 64 51 62 SW13 29.61F CHESTER PTSUNNY 63 46 55 W7G14 29.61F MERIDEN FAIR 63 44 50 W10 29.60F WILLIMANTIC PTSUNNY 62 48 60 VRB7 29.60F OXFORD FAIR 60 44 55 W9G17 29.62F $$ MEZ002-015-021-024-NHZ003-005-008-011-012-014-VTZ005-008-202000- NORTHERN NEW ENGLAND CITY SKY/WX TMP DP RH WIND PRES REMARKS PORTLAND ME PTSUNNY 64 42 44 SW15G28 29.51F BANGOR ME PTSUNNY 63 40 42 SW9G21 29.45F CONCORD NH FAIR 62 40 44 SW14G23 29.53F MANCHESTER NH FAIR 61 41 47 SW15G25 29.54F NASHUA NH FAIR 60 46 59 W12G25 29.57F PORTSMOUTH NH MOSUNNY 60 41 49 W14G23 29.52F JAFFREY NH FAIR 56 42 59 W10G18 29.58F KEENE NH FAIR 59 39 47 SW16 29.56F BURLINGTON VT FAIR 61 28 28 W17G26 29.52R MT. WASHINGTON PTSUNNY 30 25 80 W53G59 N/A WCI 11 $$ NYZ052-076-202000- EASTERN NEW YORK CITY SKY/WX TMP DP RH WIND PRES REMARKS ALBANY PTSUNNY 58 36 43 W8 29.60F NEW YORK CITY PTSUNNY 62 44 51 W12G22 29.65F $$ ANZALL-202000- MARINE OBSERVATIONS STATION/POSITION TIME TEMP WIND PRES VSBY WAVE AIR SEA DIR/SP/G HT/PER (UTC) (F) (DEG/KT/KT) (MB) (MI) (FT/S) BOSTON BUOY 1850 59 57 240/ 10/ 12 1001.0F 1/ 3 BUZZARDS BAY 1800 59 250/ 25/ 29 1003.1F NANTUCKET SOUND 1850 60 250/ 17/ 21 1002.3F 3/ 4 MASS BAY-STELLWA 1804 57 55 240/ 10/ 12 1000.4F 1 7/8 3/ 4 ISLE OF SHOALS 1800 59 250/ 18/ 19 1000.5F S OF BLOCK IS 1843 63 N/A 10/ 8 $$ ......................KEY......................... SKY/WX - SKY CONDITION/PRESENT WEATHER TMP - TEMPERATURE IN FAHRENHEIT DWPT - DEWPOINT IN FAHRENHEIT RH - RELATIVE HUMIDITY IN PERCENT WIND - DIRECTION AND SPEED IN MPH PRES - MEAN SEA LEVEL PRESSURE IN INCHES OF HG WCI - WIND CHILL INDEX VSB - VISIBILITY IN MILES HX - HEAT INDEX TC - TEMPERATURE IN CELSIUS VRB - VARIABLE WIND DIRECTION N/A - NOT AVAILABLE

USA.gov is the U.S. government's official web portal to all federal, state and local government web resources and services.